STARLINK-3089, 49166

Orbit data source: Space-Track

STARLINK-3089, 49166 is a payload satellite owned by SpaceX/Seattle (US) in LEO that was launched on Tue, 14 Sep 2021 UTC via an FALCON 9 launch vehicle from the Air Force Western Test Range (AFWTR). Payload-class satellites include a variety of spacecraft equipped with specific instruments for various scientific and technological missions. These include communications satellites like Starlink; space stations such as the ISS; scientific satellites like the Hubble; Earth observation satellites from companies like Planet Labs, Umbra, and HawkEye 360; GPS; miniature CubeSats for education and research; and military/defense satellites.

Loading next visibility...
Identifier
49166, 2021-082AN
Orbit
LEO
Last TLE update
6 hours ago
Origin
Manufacturer
SpaceX/Seattle
Mission
Operational Commercial Communications
Bus & Motor
STARLINK, Unknown motor
Mass
297 kg wet, ~275 kg dry
Launch date (UTC)
2021-09-14 (4 years ago)
Launch vehicle
FALCON 9
Launch site
Air Force Western Test Range (AFWTR)
Object type
Payload
Rocket body
Debris
Shape & HBR
Box + 1 Pan, 8.86 m
Radar Cross Section
13.562 m², Large (>1 m²)

Expand to show TLE details & history

TLE from 6 hours ago
0 STARLINK-3089
1 49166U 21082AN  25183.96050780  .00000046  00000-0  11639-4 0  9997
2 49166  69.9989 184.1102 0003130 262.0322  98.0482 14.98331059210264
Epoch: 2025-07-02T23:03Z
TLE epoch observation values (Epoch: 2025-07-02T23:03:07.873Z)
Latitude
-0.00004°
Longitude
-82.90673°
Altitude
574.782 km
Speed
7.574 km/s
True Right ascension
12h 16m 26s
True Declination
0° 00' 00"
Sunlit
Object was in daylight at epoch
Visualization orbit readout
Latitude
-69.71546°
Longitude
-161.9048°
Altitude
595.383 km
Speed
7.562 km/s
Apparent Right ascension
05h 32m 44s
Apparent Declination
-56° 17' 49"
Sunlit
Object is in daylight
Visualization observer readout
Local Sidereal Time
16:50:08
Azimuth
199.588° SSW
Elevation
-72.191°
Doppler factor
1
Orbital elements
Apogee altitude
572.176 km
Perigee altitude
567.826 km
Semi-major axis
6,948.138 km
Eccentricity
0.00031
Inclination
69.9989°
RAAN
184.1102°
Arg. of periapsis
262.0322°
True anomaly
Unknown
Mean anomaly
98.0482°
Eccentric anomaly
Unknown
Mean motion
3.74749 °/min
Orbital period
96.06 mins
BSTAR
0.000011639
Loading maneuver chart data...
Loading SW <> Apogee altitude chart data...
Loading historical data...
Loading historical data...
Loading historical data...
Loading historical data...
Loading historical data...
Loading historical data...
Loading historical data...

STARLINK-3089 Visibility forecast

Observer location: undefined°, undefined°

Span
Click to sort rows by Start time (UTC) header in descending order
Start Az.
Max El. time (UTC)
Max El. Az.
Max El.
End time (UTC)
End Az.
7 mins2025-07-03 10:48:41.406Z348.274° N2025-07-03 10:51:41.406Z39.025° NE36.743°2025-07-03 10:55:41.406Z137.252° SSE
6 mins2025-07-04 00:49:41.406Z162.825° S2025-07-04 00:51:41.406Z121.615° SE29.391°2025-07-04 00:55:41.406Z43.554° NE
4 mins2025-07-04 02:28:41.406Z272.081° WNW2025-07-04 02:30:41.406Z308.823° NW18.952°2025-07-04 02:32:41.406Z343.046° N
|